Other Public Products
Issued by NWS Grand Forks, ND

Home | Current Version | Previous Version | Text Only | Print | Product List | Glossary On
Versions: 1 2 3 4 5 6 7 8 9 10 11 12 13 14 15 16 17 18 19 20 21 22 23 24 25 26 27 28 29 30 31 32 33 34 35 36 37 38 39 40 41 42 43 44 45 46 47 48 49 50
000
FPUS83 KFGF 162210
OPUFGF
PRAIRIE TO PINES WEATHER ROUNDUP
NATIONAL WEATHER SERVICE EASTERN NORTH DAKOTA/GRAND FORKS ND
500 PM CDT MON OCT 16 2017

 **SATELLITE DATA USED TO AUGMENT SKY COVER AT AUTOMATED STATIONS**
 *****  WEATHER ACROSS EASTERN NORTH DAKOTA  *****

CITY           SKY/WX    TMP DP  RH WIND       PRES   REMARKS
GRAND FORKS    FAIR      71  36  27 W16G28    29.82S
GRAND FORKS AF FAIR      69  34  27 W17       29.83R
GRAND CITY NWS NOT AVBL
BUXTON         NOT AVBL
DEVILS LAKE    FAIR      65  36  34 W13       29.86S
FARGO          FAIR      70  41  34 SW14      29.85F
WAHPETON ARPT  NOT AVBL
$$

 *****  WEATHER ACROSS CENTRAL AND WESTERN NORTH DAKOTA  *****

CITY           SKY/WX    TMP DP  RH WIND       PRES   REMARKS
JAMESTOWN      FAIR      70  34  26 NW17G25   29.88S
BISMARCK       FAIR      72  31  22 W17G24    29.93R
MINOT          FAIR      67  35  30 W15       29.89R
MINOT AFB      FAIR      66  35  31 NW12      29.87R
GARRISON         N/A     65  30  27 NW18G24   29.91R
WILLISTON      FAIR      68  32  26 W12       29.93S
DICKINSON      FAIR      68  30  24 W17G26    29.96S
HETTINGER      FAIR      69  29  22 W20       30.01F
$$

 *****  OTHER OBSERVATIONS NORTHEAST NORTH DAKOTA  *****

CITY           SKY/WX    TMP DP  RH WIND       PRES   REMARKS
WALHALLA       FAIR     N/A N/A N/A NW9       29.79R
LANGDON        FAIR      66  32  28 W16       29.83R
CAVALIER       FAIR      68  36  30 W13G23    29.79S
GRAFTON        FAIR      66  37  34 W16       29.83R
CANDO          FAIR      63  34  34 W12       29.87S
FORT TOTTEN      N/A     67  35  29 NW7       29.95
ROLLA          FAIR      64  32  29 W10       29.86R
RUGBY          FAIR      64  36  34 NW15      29.86S
 ***** THE ABOVE OBSERVATIONS ARE NON NWS ARE NOT QUALITY
        CONTROLLED AND MAY MIS-REPORT RAIN FOR SNOW...
$$

 *****  OTHER OBSERVATIONS SOUTHEAST NORTH DAKOTA *****

CITY           SKY/WX    TMP DP  RH WIND       PRES   REMARKS
COOPERSTOWN    FAIR      68  34  28 W18G25    29.88R
VALLEY CITY    FAIR      70  37  30 W17G24    29.90R
OAKES          NOT AVBL
GWINNER        CLEAR     68  39  34 SW13G20   29.90S
SHEYENNE NWR     N/A     71  40  32 SW15      29.95S
BUFFALO        NOT AVBL
WYNDMERE       NOT AVBL
 ***** THE ABOVE OBSERVATIONS ARE NON NWS ARE NOT QUALITY
       CONTROLLED AND MAY MIS-REPORT RAIN FOR SNOW...
$$

  *****  WEATHER ACROSS NORTHERN MINNESOTA  *****

CITY           SKY/WX    TMP DP  RH WIND       PRES   REMARKS
FLAG ISLAND    FAIR      63  36  36 SW17      29.73S
WARROAD        FAIR      64  39  39 W14G22    29.77S
ROSEAU           N/A     64  39  39 SW9G16    29.78R
HALLOCK        FAIR      68  34  28 W17       29.78F
THF RVR FALLS  FAIR      68  35  29 W20G28    29.83R
HALSTAD        NOT AVBL
FOSSTON        FAIR      66  34  30 SW17G25   29.85S
BAUDETTE       FAIR      64  36  35 SW17G28   29.78S
WASKISH        FAIR      63  39  42 SW14      29.82S
CROOKSTON      FAIR      70  36  28 W23       29.83S
$$
  *****  WEATHER ACROSS CENTRAL AND WEST MINNESOTA  *****

CITY           SKY/WX    TMP DP  RH WIND       PRES   REMARKS
BEMIDJI        FAIR      64  37  37 SW14G21   29.86S
PARK RAPIDS    FAIR      64  39  39 SW15G24   29.88F
WADENA         FAIR      64  39  39 SW12      29.91F
DETROIT LAKES  FAIR      68  36  30 SW13      29.89S
MOORHEAD       FAIR      70  37  30 SW13      29.87S
FERGUS FALLS   FAIR      70  39  32 SW14G21   29.90F
ELBOW LAKE     FAIR      68  38  33 W14       29.92F
MORRIS MN      FAIR      70  39  32 SW9       29.93F
STAPLES        FAIR      64  36  34 S13G18    29.93F
WHEATON        FAIR      68  32  26 SW14      29.93F
$$
  *****  WEATHER ELSEWHERE ACROSS MINNESOTA  *****

CITY           SKY/WX    TMP DP  RH WIND       PRES   REMARKS
DULUTH         FAIR      58  34  40 SW21G26   29.95F
INTRNTL FALLS  FAIR      62  34  35 SW17G26   29.79F
ELY            FAIR      57  30  35 SW10G21   29.88F
CLOQUET        FAIR      61  30  31 S15G23    29.95F
BRAINERD       FAIR      62  36  37 S16       29.94F
HIBBING        FAIR      59  32  36 S10G20    29.89F
ALEXANDRIA     FAIR      66  38  35 SW15G23   29.95F
SAINT CLOUD    FAIR      65  38  36 S12       29.97F
MINNEAPOLIS    FAIR      66  36  32 S9G18     30.03F
$$

  *****  WEATHER ACROSS SOUTH DAKOTA  *****

CITY           SKY/WX    TMP DP  RH WIND       PRES   REMARKS
SIOUX FALLS    FAIR      74  38  27 SW10G20   30.00F
BROOKINGS      FAIR      70  38  31 SW12      30.00S
WATERTOWN      FAIR      65  42  43 SW10      29.98S
HURON          FAIR      68  41  37 W6        29.99F
SISSETON         N/A     67  40  37 SW14G22   29.92F
ABERDEEN       FAIR      70  41  34 S9        29.94F
MITCHELL       FAIR      73  39  29 W8        30.00S
PIERRE         FAIR      74  38  27 SW5       29.98F
MOBRIDGE       FAIR      76  35  22 W13       29.93F
RAPID CITY     FAIR      75  25  15 N16       30.05S
$$

  *****  SOME WEATHER IN NEARBY STATES *****

CITY           SKY/WX    TMP DP  RH WIND       PRES   REMARKS
GLASGOW MT     FAIR      68  31  25 W16G25    29.95F
GREAT FALLS MT FAIR      67  18  15 SW31G40   30.05F
CHEYENNE WY    FAIR      72   4   7 W22       30.24R
SCOTTSBLUFF NE FAIR      74  21  13 NW12      30.12S
OMAHA NE       FAIR      73  36  25 S15       30.12F
DES MOINES IA  FAIR      68  36  30 S15       30.16F
DAVENPORT IA   FAIR      64  33  31 W10       30.23F
CHICAGO IL     FAIR      62  35  36 W9        30.21F
EAU CLAIRE WI  FAIR      61  34  36 SW8       30.08F
LA CROSSE WI   FAIR      65  34  31 S8        30.12F
$$

  *****  SOME NATIONAL WEATHER *****

CITY           SKY/WX    TMP DP  RH WIND       PRES   REMARKS
LA GUARDIA NY  MOCLDY    57  39  51 NW14      30.07R
RALEIGH NC     MOCLDY    62  56  80 NE5       30.11R
ATLANTA GA     FAIR      66  46  48 NW17      30.09S
NEW ORLEANS LA PTSUNNY   73  50  44 N13G20    30.08R
OKLAHOMA CITY  FAIR      68  36  30 S7        30.30F
ALBUQUERQUE NM FAIR      70  22  16 SW6       30.36F
SALT LAKE CITY PTSUNNY   64  28  25 NW7       30.35F
LOS ANGELES CA FAIR      82  50  32 W12       29.99F
BOISE ID       FAIR      62  26  25 CALM      30.29F
SEATTLE WA     FAIR      60  48  64 S18       30.17F
$$

*** WEATHER ACROSS MANITOBA...SASKATCHEWAN AND ONTARIO ***
                ***ONTARIO***

CITY           SKY/WX    TMP DP  RH WIND       PRES   REMARKS
GERALDTON      MOCLDY    46  32  57 S8        29.88F
THUNDER BAY    PTCLDY    54  39  58 S12       29.92F
SIOUX LOOKOUT  PTSUNNY   54  36  50 S13G20    29.73F
TORONTO        PTCLDY    48  28  46 N10       30.24R
BIG TROUT LK   LGT RAIN  43  36  75 S17       29.56F
PICKLE LAKE    CLOUDY    48  34  57 S14G20    29.68F
DRYDEN         MOSUNNY   57  37  47 S13G20    29.72F
KENORA         NOT AVBL
$$
                *** MANITOBA***

CITY           SKY/WX    TMP DP  RH WIND       PRES   REMARKS
BRANDON        PTSUNNY   64  34  32 W12       29.81S
DAUPHIN        SUNNY     64  30  27 W23G33    29.72S
ISLAND LAKE    PTCLDY    55  39  54 W14G20    29.46R
PILOT MOUND      N/A     63  36  36 W12G18      N/A
THE PAS        MOSUNNY   54  34  47 W20G33    29.65R
THOMPSON       LGT RAIN  45  41  87 W16G24    29.43R
WINNIPEG       PTSUNNY   64  37  36 W16G22    29.75R
LYNN LAKE      PTSUNNY   37  34  87 NW14G25   29.56R
CHURCHILL      CLOUDY    32  30  93 E6        29.56R
GILLAM         LGT RAIN  36  34  93 S5        29.36S
$$
                ***SASKATCHEWAN***

CITY           SKY/WX    TMP DP  RH WIND       PRES   REMARKS
ESTEVAN        MOSUNNY   66  32  28 W9        29.89R
KINDERSLEY     MOSUNNY   63  30  29 S10G20    29.78F
LLOYDMINSTER   MOSUNNY   57  28  33 SW12      29.74F
PRINCE ALBERT  PTSUNNY   59  27  29 W15       29.78S
REGINA         PTSUNNY   64  32  29 W12       29.87R
YORKTON        SUNNY     64  28  25 W22G31    29.79S



USA.gov is the U.S. government's official web portal to all federal, state and local government web resources and services.